Year,Month,Day,Hour,Minute,Value (Times are PST for temperature in C)
2011,11,10,00,00,9.90
2011,11,10,00,01,9.90
2011,11,10,00,02,9.80
2011,11,10,00,03,9.80
2011,11,10,00,04,9.90
2011,11,10,00,05,9.90
2011,11,10,00,06,9.90
2011,11,10,00,07,9.80
2011,11,10,00,08,9.90
2011,11,10,00,09,9.80
2011,11,10,00,10,9.80
2011,11,10,00,11,9.80
2011,11,10,00,12,9.90
2011,11,10,00,13,9.90
2011,11,10,00,14,9.90
2011,11,10,00,15,9.90
2011,11,10,00,16,9.90
2011,11,10,00,17,9.90
2011,11,10,00,18,9.90
2011,11,10,00,19,9.90
2011,11,10,00,20,9.90
2011,11,10,00,21,9.90
2011,11,10,00,22,9.90
2011,11,10,00,23,9.90
2011,11,10,00,24,9.90
2011,11,10,00,25,9.80
2011,11,10,00,26,9.80
2011,11,10,00,27,9.80
2011,11,10,00,28,9.90
2011,11,10,00,29,9.90
2011,11,10,00,30,9.90
2011,11,10,00,31,9.80
2011,11,10,00,32,9.80
2011,11,10,00,33,9.80
2011,11,10,00,34,9.80
2011,11,10,00,35,9.80
2011,11,10,00,36,9.80
2011,11,10,00,37,9.80
2011,11,10,00,38,9.80
2011,11,10,00,39,9.90
2011,11,10,00,40,9.90
2011,11,10,00,41,9.90
2011,11,10,00,42,9.90
2011,11,10,00,43,9.90
2011,11,10,00,44,9.90
2011,11,10,00,45,9.90
2011,11,10,00,46,9.90
2011,11,10,00,47,9.90
2011,11,10,00,48,9.90
2011,11,10,00,49,9.90
2011,11,10,00,50,9.90
2011,11,10,00,51,9.90
2011,11,10,00,52,9.90
2011,11,10,00,53,9.90
2011,11,10,00,54,9.90
2011,11,10,00,55,9.90
2011,11,10,00,56,10.00
2011,11,10,00,57,10.00
2011,11,10,00,58,10.00
2011,11,10,00,59,10.00
2011,11,10,01,00,10.00
2011,11,10,01,01,10.00
2011,11,10,01,02,10.00
2011,11,10,01,03,10.00
2011,11,10,01,04,10.00
2011,11,10,01,05,10.00
2011,11,10,01,06,10.00
2011,11,10,01,07,10.00
2011,11,10,01,08,10.00
2011,11,10,01,09,10.00
2011,11,10,01,10,10.00
2011,11,10,01,11,9.90
2011,11,10,01,12,9.90
2011,11,10,01,13,9.90
2011,11,10,01,14,9.90
2011,11,10,01,15,9.90
2011,11,10,01,16,9.90
2011,11,10,01,17,9.90
2011,11,10,01,18,9.90
2011,11,10,01,19,9.90
2011,11,10,01,20,9.90
2011,11,10,01,21,9.90
2011,11,10,01,22,9.90
2011,11,10,01,23,9.90
2011,11,10,01,24,9.90
2011,11,10,01,25,9.90
2011,11,10,01,26,9.90
2011,11,10,01,27,9.90
2011,11,10,01,28,10.00
2011,11,10,01,29,9.90
2011,11,10,01,30,10.00
2011,11,10,01,31,10.00
2011,11,10,01,32,10.00
2011,11,10,01,33,10.00
2011,11,10,01,34,9.90
2011,11,10,01,35,9.90
2011,11,10,01,36,9.90
2011,11,10,01,37,9.90
2011,11,10,01,38,9.90
2011,11,10,01,39,9.90
2011,11,10,01,40,9.90
2011,11,10,01,41,9.90
2011,11,10,01,42,9.90
2011,11,10,01,43,9.90
2011,11,10,01,44,9.90
2011,11,10,01,45,9.90
2011,11,10,01,46,9.90
2011,11,10,01,47,9.90
2011,11,10,01,48,9.90
2011,11,10,01,49,9.90
2011,11,10,01,50,9.90
2011,11,10,01,51,9.90
2011,11,10,01,52,9.90
2011,11,10,01,53,9.90
2011,11,10,01,54,9.80
2011,11,10,01,55,9.80
2011,11,10,01,56,9.80
2011,11,10,01,57,9.80
2011,11,10,01,58,9.80
2011,11,10,01,59,9.80
2011,11,10,02,00,9.80
2011,11,10,02,01,9.80
2011,11,10,02,02,9.80
2011,11,10,02,03,9.80
2011,11,10,02,04,9.80
2011,11,10,02,05,9.80
2011,11,10,02,06,9.80
2011,11,10,02,07,9.80
2011,11,10,02,08,9.80
2011,11,10,02,09,9.80
2011,11,10,02,10,9.80
2011,11,10,02,11,9.80
2011,11,10,02,12,9.80
2011,11,10,02,13,9.80
2011,11,10,02,14,9.80
2011,11,10,02,15,9.80
2011,11,10,02,16,9.80
2011,11,10,02,17,9.80
2011,11,10,02,18,9.80
2011,11,10,02,19,9.80
2011,11,10,02,20,9.80
2011,11,10,02,21,9.80
2011,11,10,02,22,9.80
2011,11,10,02,23,9.80
2011,11,10,02,24,9.80
2011,11,10,02,25,9.80
2011,11,10,02,26,9.80
2011,11,10,02,27,9.80
2011,11,10,02,28,9.80
2011,11,10,02,29,9.80
2011,11,10,02,30,9.80
2011,11,10,02,31,9.80
2011,11,10,02,32,9.80
2011,11,10,02,33,9.80
2011,11,10,02,34,9.80
2011,11,10,02,35,9.80
2011,11,10,02,36,9.80
2011,11,10,02,37,9.80
2011,11,10,02,38,9.80
2011,11,10,02,39,9.80
2011,11,10,02,40,9.80
2011,11,10,02,41,9.80
2011,11,10,02,42,9.80
2011,11,10,02,43,9.80
2011,11,10,02,44,9.80
2011,11,10,02,45,9.80
2011,11,10,02,46,9.80
2011,11,10,02,47,9.80
2011,11,10,02,48,9.80
2011,11,10,02,49,9.80
2011,11,10,02,50,9.80
2011,11,10,02,51,9.80
2011,11,10,02,52,9.80
2011,11,10,02,53,9.80
2011,11,10,02,54,9.80
2011,11,10,02,55,9.80
2011,11,10,02,56,9.80
2011,11,10,02,57,9.80
2011,11,10,02,58,9.80
2011,11,10,02,59,9.80
2011,11,10,03,00,9.80
2011,11,10,03,01,9.80
2011,11,10,03,02,9.80
2011,11,10,03,03,9.80
2011,11,10,03,04,9.80
2011,11,10,03,05,9.80
2011,11,10,03,06,9.80
2011,11,10,03,07,9.80
2011,11,10,03,08,9.80
2011,11,10,03,09,9.80
2011,11,10,03,10,9.80
2011,11,10,03,11,9.80
2011,11,10,03,12,9.80
2011,11,10,03,13,9.80
2011,11,10,03,14,9.80
2011,11,10,03,15,9.80
2011,11,10,03,16,9.80
2011,11,10,03,17,9.80
2011,11,10,03,18,9.80
2011,11,10,03,19,9.80
2011,11,10,03,20,9.80
2011,11,10,03,21,9.80
2011,11,10,03,22,9.80
2011,11,10,03,23,9.80
2011,11,10,03,24,9.80
2011,11,10,03,25,9.80
2011,11,10,03,26,9.80
2011,11,10,03,27,9.80
2011,11,10,03,28,9.80
2011,11,10,03,29,9.80
2011,11,10,03,30,9.80
2011,11,10,03,31,9.90
2011,11,10,03,32,9.90
2011,11,10,03,33,9.80
2011,11,10,03,34,9.80
2011,11,10,03,35,9.80
2011,11,10,03,36,9.80
2011,11,10,03,37,9.90
2011,11,10,03,38,9.90
2011,11,10,03,39,9.90
2011,11,10,03,40,9.90
2011,11,10,03,41,9.90
2011,11,10,03,42,9.90
2011,11,10,03,43,9.90
2011,11,10,03,44,9.90
2011,11,10,03,45,9.90
2011,11,10,03,46,9.90
2011,11,10,03,47,9.90
2011,11,10,03,48,9.90
2011,11,10,03,49,9.90
2011,11,10,03,50,9.90
2011,11,10,03,51,9.90
2011,11,10,03,52,9.90
2011,11,10,03,53,10.00
2011,11,10,03,54,10.00
2011,11,10,03,55,10.00
2011,11,10,03,56,10.00
2011,11,10,03,57,10.00
2011,11,10,03,58,9.90
2011,11,10,03,59,9.90
2011,11,10,04,00,9.90
2011,11,10,04,01,9.90
2011,11,10,04,02,9.90
2011,11,10,04,03,9.90
2011,11,10,04,04,9.90
2011,11,10,04,05,9.90
2011,11,10,04,06,9.90
2011,11,10,04,07,9.90
2011,11,10,04,08,9.90
2011,11,10,04,09,9.90
2011,11,10,04,10,9.90
2011,11,10,04,11,9.90
2011,11,10,04,12,9.90
2011,11,10,04,13,9.90
2011,11,10,04,14,9.90
2011,11,10,04,15,9.90
2011,11,10,04,16,9.90
2011,11,10,04,17,9.90
2011,11,10,04,18,10.00
2011,11,10,04,19,10.00
2011,11,10,04,20,10.00
2011,11,10,04,21,10.00
2011,11,10,04,22,10.00
2011,11,10,04,23,10.00
2011,11,10,04,24,10.00
2011,11,10,04,25,10.00
2011,11,10,04,26,9.90
2011,11,10,04,27,9.90
2011,11,10,04,28,9.90
2011,11,10,04,29,9.90
2011,11,10,04,30,10.00
2011,11,10,04,31,10.00
2011,11,10,04,32,10.10
2011,11,10,04,33,10.10
2011,11,10,04,34,10.20
2011,11,10,04,35,10.20
2011,11,10,04,36,10.30
2011,11,10,04,37,10.30
2011,11,10,04,38,10.40
2011,11,10,04,39,10.40
2011,11,10,04,40,10.40
2011,11,10,04,41,10.50
2011,11,10,04,42,10.50
2011,11,10,04,43,10.60
2011,11,10,04,44,10.60
2011,11,10,04,45,10.60
2011,11,10,04,46,10.60
2011,11,10,04,47,10.60
2011,11,10,04,48,10.70
2011,11,10,04,49,10.70
2011,11,10,04,50,10.70
2011,11,10,04,51,10.70
2011,11,10,04,52,10.70
2011,11,10,04,53,10.70
2011,11,10,04,54,10.70
2011,11,10,04,55,10.70
2011,11,10,04,56,10.70
2011,11,10,04,57,10.70
2011,11,10,04,58,10.70
2011,11,10,04,59,10.70
2011,11,10,05,00,10.60
2011,11,10,05,01,10.60
2011,11,10,05,02,10.50
2011,11,10,05,03,10.50
2011,11,10,05,04,10.40
2011,11,10,05,05,10.40
2011,11,10,05,06,10.40
2011,11,10,05,07,10.30
2011,11,10,05,08,10.30
2011,11,10,05,09,10.30
2011,11,10,05,10,10.30
2011,11,10,05,11,10.30
2011,11,10,05,12,10.40
2011,11,10,05,13,10.40
2011,11,10,05,14,10.40
2011,11,10,05,15,10.30
2011,11,10,05,16,10.30
2011,11,10,05,17,10.30
2011,11,10,05,18,10.20
2011,11,10,05,19,10.20
2011,11,10,05,20,10.10
2011,11,10,05,21,10.10
2011,11,10,05,22,10.00
2011,11,10,05,23,10.00
2011,11,10,05,24,9.90
2011,11,10,05,25,9.90
2011,11,10,05,26,9.80
2011,11,10,05,27,9.80
2011,11,10,05,28,9.80
2011,11,10,05,29,9.80
2011,11,10,05,30,9.70
2011,11,10,05,31,9.70
2011,11,10,05,32,9.70
2011,11,10,05,33,9.70
2011,11,10,05,34,9.70
2011,11,10,05,35,9.70
2011,11,10,05,36,9.60
2011,11,10,05,37,9.60
2011,11,10,05,38,9.60
2011,11,10,05,39,9.60
2011,11,10,05,40,9.50
2011,11,10,05,41,9.60
2011,11,10,05,42,9.60
2011,11,10,05,43,9.70
2011,11,10,05,44,9.70
2011,11,10,05,45,9.70
2011,11,10,05,46,9.70
2011,11,10,05,47,9.70
2011,11,10,05,48,9.70
2011,11,10,05,49,9.80
2011,11,10,05,50,9.80
2011,11,10,05,51,9.80
2011,11,10,05,52,9.80
2011,11,10,05,53,9.80
2011,11,10,05,54,9.80
2011,11,10,05,55,9.80
2011,11,10,05,56,9.80
2011,11,10,05,57,9.80
2011,11,10,05,58,9.80
2011,11,10,05,59,9.80
2011,11,10,06,00,9.80
2011,11,10,06,01,9.80
2011,11,10,06,02,9.80
2011,11,10,06,03,9.80
2011,11,10,06,04,9.80
2011,11,10,06,05,9.80
2011,11,10,06,06,9.80
2011,11,10,06,07,9.80
2011,11,10,06,08,9.80
2011,11,10,06,09,9.90
2011,11,10,06,10,10.00
2011,11,10,06,11,10.10
2011,11,10,06,12,10.10
2011,11,10,06,13,10.20
2011,11,10,06,14,10.20
2011,11,10,06,15,10.20
2011,11,10,06,16,10.30
2011,11,10,06,17,10.30
2011,11,10,06,18,10.30
2011,11,10,06,19,10.30
2011,11,10,06,20,10.30
2011,11,10,06,21,10.30
2011,11,10,06,22,10.40
2011,11,10,06,23,10.40
2011,11,10,06,24,10.40
2011,11,10,06,25,10.40
2011,11,10,06,26,10.40
2011,11,10,06,27,10.40
2011,11,10,06,28,10.40
2011,11,10,06,29,10.40
2011,11,10,06,30,10.40
2011,11,10,06,31,10.40
2011,11,10,06,32,10.30
2011,11,10,06,33,10.20
2011,11,10,06,34,10.20
2011,11,10,06,35,10.20
2011,11,10,06,36,10.10
2011,11,10,06,37,10.10
2011,11,10,06,38,10.00
2011,11,10,06,39,10.00
2011,11,10,06,40,10.00
2011,11,10,06,41,9.90
2011,11,10,06,42,9.90
2011,11,10,06,43,9.90
2011,11,10,06,44,9.80
2011,11,10,06,45,9.80
2011,11,10,06,46,9.80
2011,11,10,06,47,9.80
2011,11,10,06,48,9.80
2011,11,10,06,49,9.70
2011,11,10,06,50,9.70
2011,11,10,06,51,9.70
2011,11,10,06,52,9.70
2011,11,10,06,53,9.70
2011,11,10,06,54,9.60
2011,11,10,06,55,9.60
2011,11,10,06,56,9.60
2011,11,10,06,57,9.60
2011,11,10,06,58,9.60
2011,11,10,06,59,9.60
2011,11,10,07,00,9.60
2011,11,10,07,01,9.50
2011,11,10,07,02,9.50
2011,11,10,07,03,9.50
2011,11,10,07,04,9.50
2011,11,10,07,05,9.50
2011,11,10,07,06,9.50
2011,11,10,07,07,9.50
2011,11,10,07,08,9.50
2011,11,10,07,09,9.50
2011,11,10,07,10,9.50
2011,11,10,07,11,9.50
2011,11,10,07,12,9.40
2011,11,10,07,13,9.40
2011,11,10,07,14,9.40
2011,11,10,07,15,9.40
2011,11,10,07,16,9.40
2011,11,10,07,17,9.40
2011,11,10,07,18,9.40
2011,11,10,07,19,9.40
2011,11,10,07,20,9.40
2011,11,10,07,21,9.30
2011,11,10,07,22,9.30
2011,11,10,07,23,9.30
2011,11,10,07,24,9.30
2011,11,10,07,25,9.30
2011,11,10,07,26,9.30
2011,11,10,07,27,9.30
2011,11,10,07,28,9.30
2011,11,10,07,29,9.30
2011,11,10,07,30,9.30
2011,11,10,07,31,9.30
2011,11,10,07,32,9.30
2011,11,10,07,33,9.30
2011,11,10,07,34,9.30
2011,11,10,07,35,9.30
2011,11,10,07,36,9.30
2011,11,10,07,37,9.30
2011,11,10,07,38,9.20
2011,11,10,07,39,9.20
2011,11,10,07,40,9.20
2011,11,10,07,41,9.20
2011,11,10,07,42,9.20
2011,11,10,07,43,9.20
2011,11,10,07,44,9.20
2011,11,10,07,45,9.20
2011,11,10,07,46,9.20
2011,11,10,07,47,9.20
2011,11,10,07,48,9.20
2011,11,10,07,49,9.20
2011,11,10,07,50,9.20
2011,11,10,07,51,9.20
2011,11,10,07,52,9.20
2011,11,10,07,53,9.20
2011,11,10,07,54,9.20
2011,11,10,07,55,9.20
2011,11,10,07,56,9.20
2011,11,10,07,57,9.20
2011,11,10,07,58,9.20
2011,11,10,07,59,9.20
2011,11,10,08,00,9.20
2011,11,10,08,01,9.20
2011,11,10,08,02,9.20
2011,11,10,08,03,9.10
2011,11,10,08,04,9.10
2011,11,10,08,05,9.10
2011,11,10,08,06,9.10
2011,11,10,08,07,9.10
2011,11,10,08,08,9.10
2011,11,10,08,09,9.10
2011,11,10,08,10,9.10
2011,11,10,08,11,9.10
2011,11,10,08,12,9.10
2011,11,10,08,13,9.10
2011,11,10,08,14,9.10
2011,11,10,08,15,9.10
2011,11,10,08,16,9.10
2011,11,10,08,17,9.10
2011,11,10,08,18,9.10
2011,11,10,08,19,9.10
2011,11,10,08,20,9.10
2011,11,10,08,21,9.10
2011,11,10,08,22,9.10
2011,11,10,08,23,9.10
2011,11,10,08,24,9.10
2011,11,10,08,25,9.10
2011,11,10,08,26,9.10
2011,11,10,08,27,9.10
2011,11,10,08,28,9.10
2011,11,10,08,29,9.10
2011,11,10,08,30,9.10
2011,11,10,08,31,9.10
2011,11,10,08,32,9.10
2011,11,10,08,33,9.10
2011,11,10,08,34,9.10
2011,11,10,08,35,9.10
2011,11,10,08,36,9.10
2011,11,10,08,37,9.10
2011,11,10,08,38,9.10
2011,11,10,08,39,9.10
2011,11,10,08,40,9.10
2011,11,10,08,41,9.10
2011,11,10,08,42,9.10
2011,11,10,08,43,9.10
2011,11,10,08,44,9.10
2011,11,10,08,45,9.10
2011,11,10,08,46,9.20
2011,11,10,08,47,9.20
2011,11,10,08,48,9.20
2011,11,10,08,49,9.20
2011,11,10,08,50,9.20
2011,11,10,08,51,9.20
2011,11,10,08,52,9.20
2011,11,10,08,53,9.20
2011,11,10,08,54,9.20
2011,11,10,08,55,9.20
2011,11,10,08,56,9.20
2011,11,10,08,57,9.20
2011,11,10,08,58,9.20
2011,11,10,08,59,9.20
2011,11,10,09,00,9.20
2011,11,10,09,01,9.20
2011,11,10,09,02,9.20
2011,11,10,09,03,9.30
2011,11,10,09,04,9.30
2011,11,10,09,05,9.30
2011,11,10,09,06,9.30
2011,11,10,09,07,9.30
2011,11,10,09,08,9.30
2011,11,10,09,09,9.30
2011,11,10,09,10,9.30
2011,11,10,09,11,9.30
2011,11,10,09,12,9.30
2011,11,10,09,13,9.30
2011,11,10,09,14,9.30
2011,11,10,09,15,9.30
2011,11,10,09,16,9.30
2011,11,10,09,17,9.30
2011,11,10,09,18,9.30
2011,11,10,09,19,9.30
2011,11,10,09,20,9.30
2011,11,10,09,21,9.30
2011,11,10,09,22,9.30
2011,11,10,09,23,9.30
2011,11,10,09,24,9.30
2011,11,10,09,25,9.40
2011,11,10,09,26,9.40
2011,11,10,09,27,9.40
2011,11,10,09,28,9.30
2011,11,10,09,29,9.30
2011,11,10,09,30,9.30
2011,11,10,09,31,9.30
2011,11,10,09,32,9.30
2011,11,10,09,33,9.30
2011,11,10,09,34,9.30
2011,11,10,09,35,9.30
2011,11,10,09,36,9.30
2011,11,10,09,37,9.40
2011,11,10,09,38,9.40
2011,11,10,09,39,9.40
2011,11,10,09,40,9.40
2011,11,10,09,41,9.40
2011,11,10,09,42,9.40
2011,11,10,09,43,9.40
2011,11,10,09,44,9.40
2011,11,10,09,45,9.40
2011,11,10,09,46,9.50
2011,11,10,09,47,9.50
2011,11,10,09,48,9.50
2011,11,10,09,49,9.60
2011,11,10,09,50,9.60
2011,11,10,09,51,9.60
2011,11,10,09,52,9.60
2011,11,10,09,53,9.70
2011,11,10,09,54,9.70
2011,11,10,09,55,9.70
2011,11,10,09,56,9.70
2011,11,10,09,57,9.70
2011,11,10,09,58,9.80
2011,11,10,09,59,9.80
2011,11,10,10,00,9.80
2011,11,10,10,01,9.80
2011,11,10,10,02,9.80
2011,11,10,10,03,9.90
2011,11,10,10,04,9.90
2011,11,10,10,05,9.90
2011,11,10,10,06,9.90
2011,11,10,10,07,10.00
2011,11,10,10,08,10.00
2011,11,10,10,09,10.10
2011,11,10,10,10,10.10
2011,11,10,10,11,10.10
2011,11,10,10,12,10.20
2011,11,10,10,13,10.20
2011,11,10,10,14,10.20
2011,11,10,10,15,10.20
2011,11,10,10,16,10.30
2011,11,10,10,17,10.30
2011,11,10,10,18,10.30
2011,11,10,10,19,10.30
2011,11,10,10,20,10.30
2011,11,10,10,21,10.30
2011,11,10,10,22,10.40
2011,11,10,10,23,10.40
2011,11,10,10,24,10.40
2011,11,10,10,25,10.40
2011,11,10,10,26,10.50
2011,11,10,10,27,10.50
2011,11,10,10,28,10.50
2011,11,10,10,29,10.50
2011,11,10,10,30,10.50
2011,11,10,10,31,10.50
2011,11,10,10,32,10.60
2011,11,10,10,33,10.60
2011,11,10,10,34,10.60
2011,11,10,10,35,10.60
2011,11,10,10,36,10.70
2011,11,10,10,37,10.70
2011,11,10,10,38,10.70
2011,11,10,10,39,10.70
2011,11,10,10,40,10.70
2011,11,10,10,41,10.80
2011,11,10,10,42,10.80
2011,11,10,10,43,10.80
2011,11,10,10,44,10.90
2011,11,10,10,45,10.90
2011,11,10,10,46,10.90
2011,11,10,10,47,11.00
2011,11,10,10,48,11.00
2011,11,10,10,49,11.10
2011,11,10,10,50,11.20
2011,11,10,10,51,11.20
2011,11,10,10,52,11.30
2011,11,10,10,53,11.30
2011,11,10,10,54,11.40
2011,11,10,10,55,11.50
2011,11,10,10,56,11.60
2011,11,10,10,57,11.70
2011,11,10,10,58,11.80
2011,11,10,10,59,11.90
2011,11,10,11,00,12.00
2011,11,10,11,01,12.10
2011,11,10,11,02,12.10
2011,11,10,11,03,12.20
2011,11,10,11,04,12.30
2011,11,10,11,05,12.30
2011,11,10,11,06,12.40
2011,11,10,11,07,12.50
2011,11,10,11,08,12.50
2011,11,10,11,09,12.60
2011,11,10,11,10,12.70
2011,11,10,11,11,12.70
2011,11,10,11,12,12.70
2011,11,10,11,13,12.70
2011,11,10,11,14,12.70
2011,11,10,11,15,12.80
2011,11,10,11,16,12.80
2011,11,10,11,17,12.80
2011,11,10,11,18,12.80
2011,11,10,11,19,12.90
2011,11,10,11,20,12.90
2011,11,10,11,21,13.00
2011,11,10,11,22,13.00
2011,11,10,11,23,13.10
2011,11,10,11,24,13.10
2011,11,10,11,25,13.10
2011,11,10,11,26,13.10
2011,11,10,11,27,13.10
2011,11,10,11,28,13.10
2011,11,10,11,29,13.10
2011,11,10,11,30,13.20
2011,11,10,11,31,13.10
2011,11,10,11,32,13.10
2011,11,10,11,33,13.10
2011,11,10,11,34,13.10
2011,11,10,11,35,13.20
2011,11,10,11,36,13.20
2011,11,10,11,37,13.20
2011,11,10,11,38,13.20
2011,11,10,11,39,13.10
2011,11,10,11,40,13.10
2011,11,10,11,41,13.10
2011,11,10,11,42,13.10
2011,11,10,11,43,13.10
2011,11,10,11,44,13.20
2011,11,10,11,45,13.20
2011,11,10,11,46,13.20
2011,11,10,11,47,13.20
2011,11,10,11,48,13.20
2011,11,10,11,49,13.20
2011,11,10,11,50,13.30
2011,11,10,11,51,13.30
2011,11,10,11,52,13.30
2011,11,10,11,53,13.30
2011,11,10,11,54,13.30
2011,11,10,11,55,13.30
2011,11,10,11,56,13.40
2011,11,10,11,57,13.40
2011,11,10,11,58,13.40
2011,11,10,11,59,13.50
2011,11,10,12,00,13.60
2011,11,10,12,01,13.60
2011,11,10,12,02,13.70
2011,11,10,12,03,13.70
2011,11,10,12,04,13.80
2011,11,10,12,05,13.80
2011,11,10,12,06,13.90
2011,11,10,12,07,13.90
2011,11,10,12,08,13.90
2011,11,10,12,09,14.00
2011,11,10,12,10,13.90
2011,11,10,12,11,13.90
2011,11,10,12,12,14.00
2011,11,10,12,13,14.00
2011,11,10,12,14,14.00
2011,11,10,12,15,14.00
2011,11,10,12,16,14.10
2011,11,10,12,17,14.10
2011,11,10,12,18,14.20
2011,11,10,12,19,14.20
2011,11,10,12,20,14.30
2011,11,10,12,21,14.40
2011,11,10,12,22,14.40
2011,11,10,12,23,14.50
2011,11,10,12,24,14.60
2011,11,10,12,25,14.60
2011,11,10,12,26,14.60
2011,11,10,12,27,14.60
2011,11,10,12,28,14.60
2011,11,10,12,29,14.60
2011,11,10,12,30,14.60
2011,11,10,12,31,14.60
2011,11,10,12,32,14.70
2011,11,10,12,33,14.70
2011,11,10,12,34,14.70
2011,11,10,12,35,14.70
2011,11,10,12,36,14.80
2011,11,10,12,37,14.80
2011,11,10,12,38,14.80
2011,11,10,12,39,14.80
2011,11,10,12,40,14.80
2011,11,10,12,41,14.80
2011,11,10,12,42,14.90
2011,11,10,12,43,14.90
2011,11,10,12,44,14.80
2011,11,10,12,45,14.80
2011,11,10,12,46,14.80
2011,11,10,12,47,14.80
2011,11,10,12,48,14.80
2011,11,10,12,49,14.80
2011,11,10,12,50,14.80
2011,11,10,12,51,14.80
2011,11,10,12,52,14.80
2011,11,10,12,53,14.80
2011,11,10,12,54,14.80
2011,11,10,12,55,14.80
2011,11,10,12,56,14.90
2011,11,10,12,57,14.90
2011,11,10,12,58,14.80
2011,11,10,12,59,14.80
2011,11,10,13,00,14.80
2011,11,10,13,01,14.80
2011,11,10,13,02,14.80
2011,11,10,13,03,14.80
2011,11,10,13,04,14.80
2011,11,10,13,05,14.90
2011,11,10,13,06,14.90
2011,11,10,13,07,14.90
2011,11,10,13,08,15.00
2011,11,10,13,09,15.00
2011,11,10,13,10,15.10
2011,11,10,13,11,15.20
2011,11,10,13,12,15.20
2011,11,10,13,13,15.30
2011,11,10,13,14,15.30
2011,11,10,13,15,15.40
2011,11,10,13,16,15.40
2011,11,10,13,17,15.40
2011,11,10,13,18,15.40
2011,11,10,13,19,15.30
2011,11,10,13,20,15.40
2011,11,10,13,21,15.40
2011,11,10,13,22,15.40
2011,11,10,13,23,15.40
2011,11,10,13,24,15.50
2011,11,10,13,25,15.50
2011,11,10,13,26,15.50
2011,11,10,13,27,15.50
2011,11,10,13,28,15.50
2011,11,10,13,29,15.50
2011,11,10,13,30,15.40
2011,11,10,13,31,15.40
2011,11,10,13,32,15.40
2011,11,10,13,33,15.40
2011,11,10,13,34,15.40
2011,11,10,13,35,15.40
2011,11,10,13,36,15.40
2011,11,10,13,37,15.40
2011,11,10,13,38,15.40
2011,11,10,13,39,15.30
2011,11,10,13,40,15.30
2011,11,10,13,41,15.30
2011,11,10,13,42,15.20
2011,11,10,13,43,15.20
2011,11,10,13,44,15.10
2011,11,10,13,45,15.10
2011,11,10,13,46,15.10
2011,11,10,13,47,15.00
2011,11,10,13,48,15.00
2011,11,10,13,49,14.90
2011,11,10,13,50,14.90
2011,11,10,13,51,14.90
2011,11,10,13,52,15.00
2011,11,10,13,53,15.00
2011,11,10,13,54,15.00
2011,11,10,13,55,15.10
2011,11,10,13,56,15.20
2011,11,10,13,57,15.20
2011,11,10,13,58,15.20
2011,11,10,13,59,15.30
2011,11,10,14,00,15.30
2011,11,10,14,01,15.30
2011,11,10,14,02,15.30
2011,11,10,14,03,15.30
2011,11,10,14,04,15.30
2011,11,10,14,05,15.30
2011,11,10,14,06,15.30
2011,11,10,14,07,15.40
2011,11,10,14,08,15.40
2011,11,10,14,09,15.40
2011,11,10,14,10,15.40
2011,11,10,14,11,15.40
2011,11,10,14,12,15.40
2011,11,10,14,13,15.40
2011,11,10,14,14,15.50
2011,11,10,14,15,15.50
2011,11,10,14,16,15.60
2011,11,10,14,17,15.70
2011,11,10,14,18,15.70
2011,11,10,14,19,15.70
2011,11,10,14,20,15.70
2011,11,10,14,21,15.70
2011,11,10,14,22,15.70
2011,11,10,14,23,15.70
2011,11,10,14,24,15.70
2011,11,10,14,25,15.70
2011,11,10,14,26,15.70
2011,11,10,14,27,15.60
2011,11,10,14,28,15.60
2011,11,10,14,29,15.60
2011,11,10,14,30,15.60
2011,11,10,14,31,15.60
2011,11,10,14,32,15.60
2011,11,10,14,33,15.60
2011,11,10,14,34,15.60
2011,11,10,14,35,15.60
2011,11,10,14,36,15.60
2011,11,10,14,37,15.60
2011,11,10,14,38,15.60
2011,11,10,14,39,15.60
2011,11,10,14,40,15.60
2011,11,10,14,41,15.50
2011,11,10,14,42,15.50
2011,11,10,14,43,15.40
2011,11,10,14,44,15.40
2011,11,10,14,45,15.30
2011,11,10,14,46,15.30
2011,11,10,14,47,15.30
2011,11,10,14,48,15.30
2011,11,10,14,49,15.30
2011,11,10,14,50,15.30
2011,11,10,14,51,15.30
2011,11,10,14,52,15.20
2011,11,10,14,53,15.20
2011,11,10,14,54,15.20
2011,11,10,14,55,15.10
2011,11,10,14,56,15.10
2011,11,10,14,57,15.10
2011,11,10,14,58,15.00
2011,11,10,14,59,15.00
2011,11,10,15,00,15.00
2011,11,10,15,01,15.00
2011,11,10,15,02,15.00
2011,11,10,15,03,14.90
2011,11,10,15,04,14.90
2011,11,10,15,05,14.90
2011,11,10,15,06,14.80
2011,11,10,15,07,14.80
2011,11,10,15,08,14.80
2011,11,10,15,09,14.80
2011,11,10,15,10,14.70
2011,11,10,15,11,14.70
2011,11,10,15,12,14.70
2011,11,10,15,13,14.70
2011,11,10,15,14,14.70
2011,11,10,15,15,14.70
2011,11,10,15,16,14.70
2011,11,10,15,17,14.70
2011,11,10,15,18,14.70
2011,11,10,15,19,14.70
2011,11,10,15,20,14.70
2011,11,10,15,21,14.70
2011,11,10,15,22,14.70
2011,11,10,15,23,14.70
2011,11,10,15,24,14.70
2011,11,10,15,25,14.70
2011,11,10,15,26,14.70
2011,11,10,15,27,14.70
2011,11,10,15,28,14.70
2011,11,10,15,29,14.70
2011,11,10,15,30,14.70
2011,11,10,15,31,14.70
2011,11,10,15,32,14.70
2011,11,10,15,33,14.60
2011,11,10,15,34,14.60
2011,11,10,15,35,14.60
2011,11,10,15,36,14.60
2011,11,10,15,37,14.60
2011,11,10,15,38,14.60
2011,11,10,15,39,14.60
2011,11,10,15,40,14.60
2011,11,10,15,41,14.50
2011,11,10,15,42,14.50
2011,11,10,15,43,14.50
2011,11,10,15,44,14.50
2011,11,10,15,45,14.40
2011,11,10,15,46,14.40
2011,11,10,15,47,14.40
2011,11,10,15,48,14.40
2011,11,10,15,49,14.30
2011,11,10,15,50,14.30
2011,11,10,15,51,14.30
2011,11,10,15,52,14.30
2011,11,10,15,53,14.30
2011,11,10,15,54,14.30
2011,11,10,15,55,14.30
2011,11,10,15,56,14.20
2011,11,10,15,57,14.20
2011,11,10,15,58,14.20
2011,11,10,15,59,14.20
2011,11,10,16,00,14.20
2011,11,10,16,01,14.10
2011,11,10,16,02,14.10
2011,11,10,16,03,14.10
2011,11,10,16,04,14.10
2011,11,10,16,05,14.00
2011,11,10,16,06,14.00
2011,11,10,16,07,14.00
2011,11,10,16,08,14.00
2011,11,10,16,09,14.00
2011,11,10,16,10,13.90
2011,11,10,16,11,13.90
2011,11,10,16,12,13.90
2011,11,10,16,13,13.80
2011,11,10,16,14,13.80
2011,11,10,16,15,13.80
2011,11,10,16,16,13.70
2011,11,10,16,17,13.60
2011,11,10,16,18,13.60
2011,11,10,16,19,13.60
2011,11,10,16,20,13.50
2011,11,10,16,21,13.50
2011,11,10,16,22,13.40
2011,11,10,16,23,13.40
2011,11,10,16,24,13.30
2011,11,10,16,25,13.30
2011,11,10,16,26,13.30
2011,11,10,16,27,13.30
2011,11,10,16,28,13.20
2011,11,10,16,29,13.20
2011,11,10,16,30,13.10
2011,11,10,16,31,13.10
2011,11,10,16,32,13.10
2011,11,10,16,33,13.00
2011,11,10,16,34,13.00
2011,11,10,16,35,12.90
2011,11,10,16,36,12.90
2011,11,10,16,37,12.90
2011,11,10,16,38,12.90
2011,11,10,16,39,12.80
2011,11,10,16,40,12.80
2011,11,10,16,41,12.80
2011,11,10,16,42,12.80
2011,11,10,16,43,12.70
2011,11,10,16,44,12.70
2011,11,10,16,45,12.70
2011,11,10,16,46,12.60
2011,11,10,16,47,12.60
2011,11,10,16,48,12.60
2011,11,10,16,49,12.50
2011,11,10,16,50,12.40
2011,11,10,16,51,12.40
2011,11,10,16,52,12.30
2011,11,10,16,53,12.30
2011,11,10,16,54,12.10
2011,11,10,16,55,12.00
2011,11,10,16,56,11.90
2011,11,10,16,57,11.70
2011,11,10,16,58,11.60
2011,11,10,16,59,11.50
2011,11,10,17,00,11.40
2011,11,10,17,01,11.20
2011,11,10,17,02,11.10
2011,11,10,17,03,11.00
2011,11,10,17,04,10.90
2011,11,10,17,05,10.80
2011,11,10,17,06,10.70
2011,11,10,17,07,10.60
2011,11,10,17,08,10.60
2011,11,10,17,09,10.50
2011,11,10,17,10,10.40
2011,11,10,17,11,10.30
2011,11,10,17,12,10.30
2011,11,10,17,13,10.30
2011,11,10,17,14,10.20
2011,11,10,17,15,10.10
2011,11,10,17,16,10.10
2011,11,10,17,17,10.00
2011,11,10,17,18,10.00
2011,11,10,17,19,9.90
2011,11,10,17,20,9.90
2011,11,10,17,21,9.90
2011,11,10,17,22,9.80
2011,11,10,17,23,9.80
2011,11,10,17,24,9.80
2011,11,10,17,25,9.70
2011,11,10,17,26,9.70
2011,11,10,17,27,9.60
2011,11,10,17,28,9.60
2011,11,10,17,29,9.50
2011,11,10,17,30,9.50
2011,11,10,17,31,9.50
2011,11,10,17,32,9.40
2011,11,10,17,33,9.40
2011,11,10,17,34,9.30
2011,11,10,17,35,9.30
2011,11,10,17,36,9.20
2011,11,10,17,37,9.20
2011,11,10,17,38,9.10
2011,11,10,17,39,9.10
2011,11,10,17,40,9.10
2011,11,10,17,41,9.00